When you browse on this site, cookies collect data to enhance your experience and personalize the content and advertising you see.
Visit our Privacy Policy to learn more. By continuing to use the site, you agree to this use of cookies and data.
  • In Österreich
  • Länderverzeichnis
  • Für 7 Tage
  • Wassertemperatur
  • Wetterkarte
  • News
  • Widgets
  • user-avatar
    Anmelden

    Stündliche Wetter La Sierra

    Heute, 17 Januar, Freitag

    Zeit Temperatur Niederschläge Wind Luftdruck Luftfeuchtigkeit
    00:00 +19°C° 0 mm 1 m/S 622 mmHg 81%
    01:00 +19°C° 0 mm 1 m/S 622 mmHg 81%
    02:00 +19°C° 0.1 mm 1 m/S 622 mmHg 82%
    03:00 +19°C° 0.1 mm 1 m/S 621 mmHg 82%
    04:00 +19°C° 0.1 mm 1 m/S 621 mmHg 82%
    05:00 +19°C° 0.1 mm 1 m/S 622 mmHg 82%
    06:00 +18°C° 0.1 mm 2 m/S 622 mmHg 82%
    07:00 +19°C° 0 mm 2 m/S 623 mmHg 82%
    08:00 +21°C° 0 mm 2 m/S 624 mmHg 75%
    09:00 +24°C° 0 mm 2 m/S 624 mmHg 67%
    10:00 +25°C° 0 mm 2 m/S 625 mmHg 59%
    11:00 +26°C° 0.1 mm 2 m/S 625 mmHg 56%
    12:00 +27°C° 0.1 mm 2 m/S 625 mmHg 53%
    13:00 +28°C° 0.1 mm 2 m/S 624 mmHg 50%
    14:00 +28°C° 0.1 mm 2 m/S 624 mmHg 51%
    15:00 +27°C° 0.1 mm 2 m/S 623 mmHg 53%
    16:00 +27°C° 0.1 mm 2 m/S 623 mmHg 54%
    17:00 +25°C° 0 mm 2 m/S 623 mmHg 60%
    18:00 +23°C° 0 mm 2 m/S 622 mmHg 66%
    19:00 +20°C° 0 mm 2 m/S 622 mmHg 72%
    20:00 +20°C° 0 mm 2 m/S 623 mmHg 74%
    21:00 +20°C° 0 mm 2 m/S 623 mmHg 76%
    22:00 +20°C° 0 mm 1 m/S 623 mmHg 78%
    23:00 +20°C° 0 mm 1 m/S 623 mmHg 79%

    Morgen, 18 Januar, Samstag

    Zeit Temperatur Niederschläge Wind Luftdruck Luftfeuchtigkeit
    00:00 +20°C° 0 mm 1 m/S 623 mmHg 80%
    01:00 +19°C° 0 mm 1 m/S 622 mmHg 82%
    02:00 +19°C° 0 mm 1 m/S 622 mmHg 81%
    03:00 +19°C° 0 mm 1 m/S 621 mmHg 81%
    04:00 +19°C° 0 mm 1 m/S 621 mmHg 81%
    05:00 +19°C° 0 mm 1 m/S 621 mmHg 81%
    06:00 +19°C° 0 mm 1 m/S 622 mmHg 80%
    07:00 +19°C° 0 mm 1 m/S 622 mmHg 80%
    08:00 +21°C° 0 mm 1 m/S 623 mmHg 73%
    09:00 +23°C° 0 mm 1 m/S 624 mmHg 66%
    10:00 +25°C° 0 mm 1 m/S 626 mmHg 60%
    11:00 +26°C° 0 mm 1 m/S 625 mmHg 57%
    12:00 +27°C° 0 mm 1 m/S 625 mmHg 54%
    13:00 +28°C° 0 mm 2 m/S 625 mmHg 50%
    14:00 +28°C° 0.1 mm 1 m/S 624 mmHg 52%
    15:00 +28°C° 0.1 mm 1 m/S 623 mmHg 54%
    16:00 +27°C° 0.1 mm 1 m/S 623 mmHg 56%
    17:00 +25°C° 0.2 mm 1 m/S 622 mmHg 66%
    18:00 +23°C° 0.2 mm 1 m/S 622 mmHg 77%
    19:00 +20°C° 0.2 mm 1 m/S 621 mmHg 88%
    20:00 +20°C° 0.3 mm 1 m/S 622 mmHg 87%
    21:00 +20°C° 0.3 mm 1 m/S 622 mmHg 87%
    22:00 +19°C° 0.3 mm 1 m/S 623 mmHg 86%
    23:00 +19°C° 0.1 mm 1 m/S 623 mmHg 86%

    übermorgen, 19 Januar, Sonntag

    Zeit Temperatur Niederschläge Wind Luftdruck Luftfeuchtigkeit
    00:00 +19°C° 0.1 mm 1 m/S 622 mmHg 87%
    01:00 +19°C° 0.1 mm 1 m/S 622 mmHg 87%
    02:00 +19°C° 0.1 mm 1 m/S 622 mmHg 88%
    03:00 +19°C° 0.1 mm 1 m/S 621 mmHg 89%
    04:00 +19°C° 0.1 mm 1 m/S 621 mmHg 90%
    05:00 +19°C° 0 mm 1 m/S 621 mmHg 89%
    06:00 +19°C° 0 mm 1 m/S 622 mmHg 89%
    07:00 +19°C° 0 mm 1 m/S 622 mmHg 88%
    08:00 +21°C° 0 mm 1 m/S 623 mmHg 81%
    09:00 +23°C° 0 mm 1 m/S 624 mmHg 74%
    10:00 +25°C° 0 mm 1 m/S 625 mmHg 68%
    11:00 +26°C° 0.1 mm 1 m/S 625 mmHg 65%
    12:00 +26°C° 0.1 mm 1 m/S 624 mmHg 62%
    13:00 +27°C° 0.1 mm 1 m/S 624 mmHg 59%
    14:00 +27°C° 0.1 mm 1 m/S 623 mmHg 60%
    15:00 +27°C° 0.1 mm 1 m/S 623 mmHg 61%
    16:00 +27°C° 0.1 mm 1 m/S 622 mmHg 62%
    17:00 +24°C° 0.8 mm 1 m/S 622 mmHg 73%
    18:00 +22°C° 0.8 mm 1 m/S 622 mmHg 83%
    19:00 +20°C° 0.8 mm 1 m/S 621 mmHg 94%
    20:00 +20°C° 0.9 mm 1 m/S 622 mmHg 94%
    21:00 +19°C° 0.9 mm 1 m/S 622 mmHg 93%
    22:00 +19°C° 0.9 mm 1 m/S 623 mmHg 93%
    23:00 +19°C° 0.6 mm 1 m/S 623 mmHg 93%

    20 Januar, Montag

    Zeit Temperatur Niederschläge Wind Luftdruck Luftfeuchtigkeit
    00:00 +19°C° 0.6 mm 1 m/S 622 mmHg 93%
    01:00 +17°C° 0.6 mm 0 m/S 622 mmHg 94%
    02:00 +17°C° 0.4 mm 0 m/S 622 mmHg 94%
    03:00 +17°C° 0.4 mm 0 m/S 621 mmHg 94%
    04:00 +17°C° 0.4 mm 0 m/S 621 mmHg 94%
    05:00 +17°C° 0.1 mm 0 m/S 622 mmHg 93%
    06:00 +17°C° 0.1 mm 0 m/S 622 mmHg 93%
    07:00 +17°C° 0.1 mm 0 m/S 622 mmHg 92%
    08:00 +20°C° 0.2 mm 1 m/S 623 mmHg 89%
    09:00 +22°C° 0.2 mm 1 m/S 624 mmHg 86%
    10:00 +23°C° 0.2 mm 1 m/S 625 mmHg 82%
    11:00 +24°C° 1.3 mm 1 m/S 625 mmHg 83%
    12:00 +24°C° 1.3 mm 1 m/S 624 mmHg 83%
    13:00 +24°C° 1.3 mm 1 m/S 623 mmHg 83%
    14:00 +24°C° 2.3 mm 1 m/S 623 mmHg 86%
    15:00 +23°C° 2.3 mm 1 m/S 622 mmHg 90%
    16:00 +20°C° 2.3 mm 0 m/S 622 mmHg 93%
    17:00 +19°C° 2.6 mm 0 m/S 622 mmHg 94%
    18:00 +18°C° 2.6 mm 0 m/S 622 mmHg 95%
    19:00 +18°C° 2.6 mm 0 m/S 622 mmHg 96%
    20:00 +17°C° 1.5 mm 0 m/S 622 mmHg 96%
    21:00 +17°C° 1.5 mm 0 m/S 623 mmHg 97%
    22:00 +17°C° 1.5 mm 0 m/S 623 mmHg 97%
    23:00 +17°C° 4 mm 0 m/S 623 mmHg 98%

    21 Januar, Dienstag

    Zeit Temperatur Niederschläge Wind Luftdruck Luftfeuchtigkeit
    00:00 +17°C° 4 mm 0 m/S 623 mmHg 98%
    01:00 +16°C° 4 mm 0 m/S 622 mmHg 99%
    02:00 +16°C° 2.5 mm 0 m/S 622 mmHg 99%
    03:00 +16°C° 2.5 mm 0 m/S 622 mmHg 99%
    04:00 +16°C° 2.5 mm 0 m/S 622 mmHg 98%
    05:00 +16°C° 0.2 mm 0 m/S 622 mmHg 98%
    06:00 +16°C° 0.2 mm 0 m/S 622 mmHg 98%
    07:00 +16°C° 0.2 mm 0 m/S 622 mmHg 97%
    08:00 +16°C° 0.1 mm 0 m/S 623 mmHg 96%
    09:00 +17°C° 0.1 mm 0 m/S 623 mmHg 95%
    10:00 +17°C° 0.1 mm 0 m/S 624 mmHg 95%
    11:00 +17°C° 0.6 mm 0 m/S 623 mmHg 95%
    12:00 +19°C° 0.6 mm 1 m/S 623 mmHg 95%
    13:00 +19°C° 0.6 mm 1 m/S 622 mmHg 96%
    14:00 +19°C° 0.8 mm 1 m/S 622 mmHg 96%
    15:00 +17°C° 0.8 mm 0 m/S 622 mmHg 96%
    16:00 +17°C° 0.8 mm 0 m/S 621 mmHg 96%
    17:00 +17°C° 0.3 mm 0 m/S 621 mmHg 96%
    18:00 +17°C° 0.3 mm 0 m/S 622 mmHg 97%
    19:00 +16°C° 0.3 mm 0 m/S 622 mmHg 98%
    20:00 +16°C° 0.1 mm 0 m/S 622 mmHg 98%
    21:00 +16°C° 0.1 mm 0 m/S 623 mmHg 97%
    22:00 +16°C° 0.1 mm 0 m/S 623 mmHg 97%
    23:00 +16°C° 0 mm 0 m/S 623 mmHg 97%

    22 Januar, Mittwoch

    Zeit Temperatur Niederschläge Wind Luftdruck Luftfeuchtigkeit
    00:00 +16°C° 0 mm 0 m/S 623 mmHg 97%
    01:00 +16°C° 0 mm 0 m/S 622 mmHg 97%
    02:00 +16°C° 0 mm 0 m/S 622 mmHg 96%
    03:00 +16°C° 0 mm 0 m/S 622 mmHg 96%
    04:00 +16°C° 0 mm 0 m/S 622 mmHg 96%
    05:00 +16°C° 0.1 mm 0 m/S 622 mmHg 96%
    06:00 +16°C° 0.1 mm 0 m/S 622 mmHg 96%
    07:00 +16°C° 0.1 mm 0 m/S 622 mmHg 96%
    08:00 +17°C° 0.1 mm 0 m/S 623 mmHg 93%
    09:00 +18°C° 0.1 mm 0 m/S 624 mmHg 91%
    10:00 +21°C° 0.1 mm 1 m/S 624 mmHg 88%
    11:00 +22°C° 0.4 mm 1 m/S 624 mmHg 83%
    12:00 +23°C° 0.4 mm 1 m/S 624 mmHg 78%
    13:00 +25°C° 0.4 mm 1 m/S 624 mmHg 73%
    14:00 +24°C° 0.8 mm 1 m/S 623 mmHg 77%
    15:00 +23°C° 0.8 mm 1 m/S 622 mmHg 80%
    16:00 +23°C° 0.8 mm 1 m/S 621 mmHg 83%
    17:00 +22°C° 0.7 mm 1 m/S 621 mmHg 87%
    18:00 +20°C° 0.7 mm 1 m/S 621 mmHg 91%
    19:00 +17°C° 0.7 mm 0 m/S 621 mmHg 95%
    20:00 +17°C° 0.1 mm 0 m/S 622 mmHg 95%
    21:00 +17°C° 0.1 mm 0 m/S 622 mmHg 95%
    22:00 +17°C° 0.1 mm 0 m/S 623 mmHg 94%
    23:00 +16°C° 0.1 mm 0 m/S 622 mmHg 94%
    Mehr zeigen